GW0882 Weather Reports


Display with metric or nautical units.
time (UTC)temp
F
wind
direction
speed
MPH
gust
MPH
rain 1hr
in
rain 24hr
in
rain mn
in
humidity
%
barometer
mb
20260506083037 50 0 3.0 12.0 0.00 0.00 0.00 70 1012.5
20260506081535 48 328 4.0 12.0 0.00 0.00 0.00 71 1012.6
20260506073040 48 29 4.0 11.0 0.00 0.00 0.00 72 1012.6
20260506071548 47 325 2.0 10.0 0.00 0.00 0.00 75 1012.5
20260506061539 46 321 2.0 9.0 0.00 0.00 0.00 80 1012.2
20260506044541 45 0 0.0 5.0 0.00 0.00 0.00 80 1012.0
20260506043036 46 316 2.0 8.0 0.00 0.00 0.00 80 1011.9
20260506041537 46 343 0.0 8.0 0.00 0.00 0.00 81 1011.8
20260506040042 47 340 1.0 4.0 0.00 0.00 0.00 80 1011.7
20260506034539 47 325 1.0 6.0 0.00 0.00 0.00 79 1011.8
20260506033037 47 0 0.0 2.0 0.00 0.00 0.00 79 1011.8
20260506031536 48 0 0.0 9.0 0.00 0.00 0.00 78 1011.7
20260506030037 48 0 0.0 10.0 0.00 0.00 0.00 78 1011.8
20260506024545 48 13 0.0 6.0 0.00 0.00 0.00 78 1011.9
20260506023038 48 24 1.0 8.0 0.00 0.00 0.00 78 1012.0
20260506021538 48 0 1.0 11.0 0.00 0.00 0.00 78 1012.0
20260506020036 48 331 0.0 8.0 0.00 0.00 0.00 77 1012.1
20260506014544 49 0 0.0 4.0 0.00 0.00 0.00 75 1012.1
20260506013040 49 0 1.0 6.0 0.00 0.00 0.00 75 1012.2
20260506011537 49 55 1.0 6.0 0.00 0.00 0.00 75 1012.2
20260506010036 49 44 0.0 7.0 0.00 0.00 0.00 75 1012.2
20260506004535 50 101 0.0 4.0 0.00 0.00 0.00 75 1012.3
20260506003042 50 11 0.0 8.0 0.00 0.00 0.00 76 1012.4
20260506001539 50 0 0.0 4.0 0.00 0.00 0.00 76 1012.4
20260506000040 51 270 2.0 9.0 0.00 0.00 0.00 77 1012.4
20260505234544 51 0 0.0 5.0 0.00 0.00 0.00 76 1012.4
20260505233036 51 0 0.0 8.0 0.00 0.00 0.00 74 1012.4
20260505231551 51 5 0.0 3.0 0.00 0.00 0.00 73 1012.5
20260505230053 51 0 0.0 3.0 0.00 0.00 0.00 72 1012.5
20260505224540 51 0 0.0 3.0 0.00 0.00 0.00 71 1012.5
20260505223036 51 0 0.0 2.0 0.00 0.00 0.00 70 1012.6
20260505221535 52 0 0.0 2.0 0.00 0.00 0.00 69 1012.6
20260505220033 52 0 0.0 7.0 0.00 0.00 0.00 68 1012.7
20260505214537 52 64 2.0 10.0 0.00 0.00 0.00 67 1012.4
20260505213047 52 0 1.0 8.0 0.00 0.00 0.00 64 1012.5
20260505211536 52 0 1.0 6.0 0.00 0.00 0.00 63 1012.5
20260505210037 53 33 0.0 5.0 0.00 0.00 0.00 62 1012.4
20260505204539 53 0 0.0 2.0 0.00 0.00 0.00 64 1012.3
20260505203039 54 28 0.0 7.0 0.00 0.00 0.00 63 1012.3
20260505201538 54 0 0.0 5.0 0.00 0.00 0.00 62 1012.2
20260505200036 54 0 1.0 9.0 0.00 0.00 0.00 61 1011.9
20260505194533 55 0 0.0 4.0 0.00 0.00 0.00 60 1011.7
20260505193039 55 0 0.0 4.0 0.00 0.00 0.00 60 1011.5
20260505191539 56 0 0.0 3.0 0.00 0.00 0.00 59 1011.3
20260505190036 56 47 1.0 5.0 0.00 0.00 0.00 59 1011.4
20260505184535 56 0 0.0 3.0 0.00 0.00 0.00 57 1011.2
20260505183038 57 71 0.0 5.0 0.00 0.00 0.00 57 1011.2
20260505181540 57 70 0.0 4.0 0.00 0.00 0.00 56 1011.2
20260505180047 58 0 1.0 10.0 0.00 0.00 0.00 56 1011.3
20260505174541 58 54 0.0 5.0 0.00 0.00 0.00 54 1011.3
20260505173035 59 0 2.0 10.0 0.00 0.00 0.00 53 1011.2
20260505171544 59 28 2.0 7.0 0.00 0.00 0.00 54 1011.2
20260505170040 60 60 2.0 8.0 0.00 0.00 0.00 51 1011.3
20260505164541 60 65 3.0 10.0 0.00 0.00 0.00 51 1011.2
20260505163034 60 88 2.0 8.0 0.00 0.00 0.00 50 1011.3
20260505161533 60 76 3.0 11.0 0.00 0.00 0.00 47 1011.4
20260505153036 61 62 3.0 10.0 0.00 0.00 0.00 44 1011.5
20260505151541 62 59 1.0 14.0 0.00 0.00 0.00 43 1011.5
20260505124541 64 80 3.0 10.0 0.00 0.00 0.00 50 1011.9
20260505123040 65 0 3.0 14.0 0.00 0.00 0.00 51 1011.9
20260505121539 63 0 1.0 14.0 0.00 0.00 0.00 55 1011.9
20260505120036 60 40 5.0 12.0 0.00 0.00 0.00 55 1012.0
20260505114541 61 0 0.0 16.0 0.00 0.00 0.00 55 1012.0
20260505113047 62 48 5.0 14.0 0.00 0.00 0.00 52 1012.2
20260505111537 62 40 3.0 12.0 0.00 0.00 0.00 58 1012.3
20260505101556 59 351 2.0 8.0 0.00 0.00 0.00 69 1012.3
20260505100055 57 0 1.0 11.0 0.00 0.00 0.00 69 1012.4
20260505094535 56 0 1.0 9.0 0.00 0.00 0.00 70 1012.6
20260505093035 56 5 1.0 8.0 0.00 0.00 0.00 70 1012.6
20260505091536 57 16 1.0 6.0 0.00 0.00 0.00 69 1012.7
20260505090036 55 30 4.0 10.0 0.00 0.00 0.00 72 1012.6
20260505084535 54 320 1.0 11.0 0.00 0.00 0.00 72 1012.7